AirNav   Pilot Hours Calculator
 
 353 users online  

F88 Jonesboro Airport
Jonesboro, Louisiana, USA

GOING TO JONESBORO?


FAA INFORMATION EFFECTIVE 12 SEPTEMBER 2019

Location

FAA Identifier: F88
Lat/Long: 32-12-07.2000N 092-43-58.6000W
32-12.120000N 092-43.976667W
32.2020000,-92.7329444
(estimated)
Elevation: 255.6 ft. / 77.9 m (surveyed)
Variation: 01E (2010)
From city: 3 miles S of JONESBORO, LA
Time zone: UTC -5 (UTC -6 during Standard Time)
Zip code: 71251

Airport Operations

Airport use: Open to the public
Activation date: 03/1964
Control tower: no
ARTCC: FORT WORTH CENTER
FSS: DE RIDDER FLIGHT SERVICE STATION
NOTAMs facility: DRI (NOTAM-D service available)
Attendance: UNATNDD
Wind indicator: lighted, LIGHTED WINDSOCK AT MIDFIELD.
Segmented circle: yes
Lights: REIL RWYS 18 & 36 AND MIRL RWY 18/36, PRESET LOW INTST; TO INCR INTST ACTVT - CTAF. PAPI RWY 36 OTS INDEFLY.
Beacon: white-green (lighted land airport)
Operates sunset to sunrise.

Airport Communications

CTAF: 122.9
MONROE APPROACH: 126.9
MONROE DEPARTURE: 126.9
  • APCH/DEP SVC PRVDD BY FORT WORTH ARTCC ON FREQS 126.325/346.25 (MONROE RCAG) WHEN MONROE APCH CTL CLSD.

Nearby radio navigation aids

VOR radial/distance  VOR name  Freq  Var
SWBr346/14.0SAWMILL VOR/DME113.7502E

 
NDB name  Hdg/Dist  Freq  Var  ID
RUSTON194/25.536803EROQ .-. --- --.-
NATCHITOCHES024/37.140704EOOC --- --- -.-.

Airport Services

Parking: tiedowns
Airframe service: NONE
Powerplant service: NONE
Bottled oxygen: NONE
Bulk oxygen: NONE

Runway Information

Runway 18/36

Dimensions: 3204 x 75 ft. / 977 x 23 m
Surface: asphalt, in good condition
Weight bearing capacity: 
Single wheel: 28.0
Runway edge lights: medium intensity
RUNWAY 18  RUNWAY 36
Latitude: 32-12.383912N32-11.855510N
Longitude: 092-43.980422W092-43.971602W
Elevation: 248.7 ft.255.5 ft.
Traffic pattern: leftleft
Runway heading: 178 magnetic, 179 true358 magnetic, 359 true
Markings: nonprecision, in good conditionnonprecision, in good condition
Visual slope indicator: 2-light PAPI on left (3.00 degrees glide path)2-light PAPI on left (3.00 degrees glide path)
Runway end identifier lights: yesyes
Touchdown point: yes, no lightsyes, no lights
Obstructions: 61 ft. trees, 1221 ft. from runway, 85 ft. left of centerline, 16:1 slope to clear57 ft. trees, 1254 ft. from runway, 408 ft. right of centerline, 18:1 slope to clear

Airport Ownership and Management from official FAA records

Ownership: Publicly-owned
Owner: CITY OF JONESBORO
128 ALLEN AVE
JONESBORO, LA 71251
Phone 318-259-2385
Manager: DENNIS HOOD
128 ALLEN AVE
JONESBORO, LA 71251
Phone (318) 245-0149

Airport Operational Statistics

Aircraft based on the field: 8
Single engine airplanes: 8
    
Aircraft operations: avg 115/week *
67% transient general aviation
33% local general aviation
* for 12-month period ending 19 December 2018

Additional Remarks

DEER AND WILDLIFE ON & INVOF ARPT.
SOUTH HOLD LINE NSTD DISTANCE FM RY CNTRLN.
FOR CD CTC MONROE APCH AT 318-327-5641, IF UNAVBL, CTC FORT WORTH ARTCC AT 817-858-7584.

Instrument Procedures

NOTE: All procedures below are presented as PDF files. If you need a reader for these files, you should download the free Adobe Reader.

NOT FOR NAVIGATION. Please procure official charts for flight.
FAA instrument procedures published for use from 12 September 2019 at 0901Z to 10 October 2019 at 0900Z.

 
IAPs - Instrument Approach Procedures
RNAV (GPS) RWY 18   download (181KB)
RNAV (GPS) RWY 36   download (191KB)
NOTE: Special Take-Off Minimums/Departure Procedures apply   download (116KB)

Other nearby airports with instrument procedures:

0R5 - David G Joyce Airport (15 nm S)
KRSN - Ruston Regional Airport (20 nm N)
0R7 - The Red River Airport (32 nm SW)
KIER - Natchitoches Regional Airport (34 nm SW)
KMNE - Minden Airport (39 nm NW)
 
Loc | Ops | Rwys | IFR | FBO | Links
Com | Nav | Svcs | Stats | Notes
Area around F88 (Jonesboro Airport)
 
Road maps at: MapQuest Bing Google
 
Aerial photo
WARNING: Photo may not be current or correct
Aerial photo of F88 (Jonesboro Airport)
Photo by Ken DeSoto
Photo taken 15-Apr-2014
looking south.

Do you have a better or more recent aerial photo of Jonesboro Airport that you would like to share? If so, please send us your photo.

 
Sectional chart

 
Airport distance calculator
Flying to Jonesboro Airport? Find the distance to fly.

From to F88

Sunrise and sunset
Times for 21-Sep-2019
 Local
(UTC-5)
 Zulu
(UTC)
Morning civil twilight06:3511:35
Sunrise06:5911:59
Sunset19:0900:09
Evening civil twilight19:3300:33

Current date and time
Zulu (UTC)  21-Sep-2019 06:48:18
Local (UTC-5)  21-Sep-2019 01:48:18
 
METAR
KRSN 
20nm N 
210635Z AUTO 00000KT 10SM SCT048 23/21 A3016 RMK AO2 T02250213
KIER 
34nm SW 
210635Z AUTO 14004KT 7SM CLR 22/22 A3011 RMK AO2 T02240220
KMNE 
39nm NW 
210635Z AUTO 11004KT 10SM BKN040 BKN050 OVC085 23/22 A3012 RMK AO2 T02280215
KMLU 
40nm NE 
210553Z AUTO 09003KT 8SM FEW045 24/23 A3013 RMK AO2 SLP202 60000 T02390228 10256 20239 403220228 53002
TAF
KMLU 
40nm NE 
210531Z 2106/2206 10003KT P6SM BKN060 FM211600 15007KT P6SM SCT020 SCT040 FM220000 13003KT P6SM SCT250
NOTAMs
Click for the latest NOTAMs
NOTAMs are issued by the DoD/FAA and will open in a separate window not controlled by AirNav.

 

 
 

Would you like to see your business listed on this page?

 If your business provides an interesting product or service to pilots, flight crews, aircraft, or users of the Jonesboro Airport, you should consider listing it here.  To start the listing process, click on the button below
 
Add a business
 

Other Pages about Jonesboro Airport

Update a link
 
Copyright © AirNav, LLC. All rights reserved. Privacy Policy  Contact